Location: Aragoneses
(41.0275°N, 4.3847°W)
Time: 14:40:42
(UTC+00:00)

Hubble Space Telescope - Pass Details

Date: 22 February 2026
Orbit: 476 x 478 km, 28.5° (Epoch: 14 March)

Event Time Altitude Azimuth Distance (km) Brightness Sun altitude
Exits shadow 05:32:45 11° 197° (SSW) 1,590 3.0 -17.6°
Maximum altitude 05:33:57 12° 178° (S) 1,510 3.1 -17.4°
Drops below altitude 10° 05:35:28 10° 154° (SSE) 1,638 3.5 -17.1°
Sets 05:38:49 0° 122° (ESE) 2,517 5.2 -16.5°
